Location: Corcelles
(46.8332°N, 6.9623°E)
Time: 23:02:22
(UTC+00:00)

Daily predictions for brighter satellites

Satellite Brightness Start Highest point End
(mag) Time Altitude Azimuth Time Altitude Azimuth Time Altitude Azimuth
Cosmos 839 Rocket 4.4 16:59:40 10° NNW 17:05:38 47° NE 17:12:09 10° ESE
SL-4 R/B 2.5 17:05:30 10° WNW 17:09:23 54° SW 17:12:58 10° SE
Unknown 4.0 17:06:01 10° WSW 17:10:03 61° NNW 17:14:04 10° ENE
COBE Rocket 4.3 17:05:07 10° NNE 17:10:08 47° E 17:15:02 10° S
Unknown 3.8 17:08:05 10° WSW 17:12:14 75° NNW 17:16:23 10° ENE
H-2A R/B 3.0 17:08:58 10° S 17:12:51 77° WSW 17:16:48 10° NNW
Cosmos 1821 Rocket 4.0 17:07:24 10° N 17:13:31 69° E 17:19:38 10° SSE
Unknown 3.8 17:09:48 10° WSW 17:13:57 73° NNW 17:18:06 10° ENE
Gbstr 26 Del rocket 4.3 17:08:35 10° WNW 17:14:13 57° N 17:21:10 10° E
Unknown 3.8 17:11:28 10° WSW 17:15:36 72° NNW 17:19:45 10° ENE
Unknown 3.8 17:13:06 10° WSW 17:17:14 70° NNW 17:21:23 10° ENE
Cosmos 2082 Rocket 3.6 17:14:01 10° N 17:18:14 21° NE 17:22:25 10° E
BREEZE M DEB (TANK) 1.6 17:16:26 10° WNW 17:18:32 70° NNE 17:22:31 10° ESE
Unknown 3.9 17:14:47 10° WSW 17:18:55 69° NNW 17:23:03 10° ENE
COSMO-SKYMED 1 2.9 17:16:04 10° NNE 17:20:14 42° E 17:24:21 10° S
Cosmos 1703 4.1 17:17:26 10° NNE 17:20:56 29° ENE 17:24:22 10° SE
Unknown 3.9 17:18:09 10° WSW 17:22:17 66° NNW 17:26:25 10° ENE
COSMOS 2406 3.5 17:17:38 10° NNW 17:23:17 50° ENE 17:28:50 10° SE
Nadezhda 3 Rocket 4.0 17:17:13 10° S 17:23:28 80° E 17:29:51 10° N
Starlink (trailer) 3.9 17:19:49 10° WSW 17:23:56 65° NNW 17:28:04 10° ENE
Cosmos 1934 Rocket 4.1 17:18:25 10° N 17:24:38 55° ENE 17:30:52 10° SSE
CSL-04 Debris 4.4 17:20:18 10° SE 17:25:32 49° ENE 17:30:48 10° N
Unknown 4.0 17:21:29 10° WSW 17:25:35 64° NNW 17:29:43 10° ENE
Unknown 4.0 17:23:05 10° WSW 17:27:12 63° NNW 17:31:20 10° ENE
H-2A R/B 4.0 17:26:39 10° ENE 17:28:07 11° NE 17:29:35 10° NE
SWAS 4.5 17:24:09 10° SSW 17:28:21 60° ESE 17:32:35 10° NE
Cosmos 1825 Rocket 3.8 17:24:08 10° NNW 17:28:30 75° W 17:32:53 10° S
Cosmos 1953 2.5 17:25:21 10° S 17:29:24 83° W 17:33:30 10° N
Abrixas rocket 4.1 17:27:45 10° S 17:29:31 14° SE 17:31:00 11° ESE
Cosmos 1953 Rocket 3.5 17:26:40 10° N 17:31:04 80° E 17:35:24 10° SSE
YAOGAN 6 2.6 17:30:03 10° SSE 17:33:38 57° ENE 17:37:14 10° N
Unknown 4.1 17:29:35 10° WSW 17:33:41 58° NNW 17:37:40 11° ENE
Unknown 4.1 17:29:50 10° WSW 17:33:56 58° NNW 17:37:54 11° ENE
Unknown 4.1 17:30:31 10° WSW 17:34:36 58° NNW 17:38:33 11° ENE
Unknown 3.4 17:33:18 10° NW 17:36:18 43° NNE 17:38:29 16° E
Unknown 4.1 17:34:28 10° W 17:38:32 55° NNW 17:42:18 12° ENE
Cosmos 1844 Rocket 2.9 17:33:10 10° SSW 17:38:49 77° WNW 17:44:30 10° NNE
Unknown 4.1 17:34:52 10° W 17:38:57 55° NNW 17:42:42 12° ENE
FengYun 1-2 T 4.2 17:34:57 10° SSE 17:40:36 81° ENE 17:46:14 10° NNW
Unknown 4.2 17:36:40 10° W 17:40:43 53° NNW 17:44:24 12° NE
Meteor 1-11 4.4 17:35:12 10° N 17:40:49 51° ENE 17:46:26 10° SSE
Cosmos 1606 Rocket 3.9 17:39:38 10° SSW 17:44:01 70° W 17:48:23 10° N
Unknown 4.2 17:39:59 10° W 17:44:03 51° NNW 17:47:35 13° NE
SKYMED 3 4.5 17:39:54 10° NNE 17:44:17 76° ESE 17:48:36 10° S
Unknown 4.2 17:40:22 10° W 17:44:25 52° NNW 17:47:57 13° NE
Unknown 4.2 17:41:34 10° W 17:45:37 52° NNW 17:49:06 14° NE
Unknown 2.4 17:43:13 10° WNW 17:45:53 81° SSW 17:47:39 19° SE
Envisat 3.3 17:42:53 10° S 17:47:57 71° WSW 17:53:03 10° NNW
Unknown 4.2 17:44:43 10° W 17:48:46 51° NNW 17:52:07 14° NE
Meteor 1-16 Rocket 4.1 17:43:33 10° S 17:49:07 78° E 17:54:33 10° NNE
BREEZE-M DEB (TANK) 3.5 17:45:32 10° SW 17:49:59 30° SSE 17:51:13 21° ESE
Unknown 4.3 17:48:14 10° W 17:52:16 49° NNW 17:55:27 15° NE
Unknown 4.3 17:49:54 10° W 17:53:55 48° NNW 17:57:03 16° NE
Cosmos 1908 3.4 17:50:17 10° SSE 17:54:02 47° E 17:57:48 10° NNE
Unknown 4.4 17:51:35 10° W 17:55:37 47° NNW 17:58:39 16° NE
Cosmos 1461 3.7 17:52:34 10° NNW 17:56:16 33° NE 17:58:03 23° E
Unknown 4.4 17:53:16 10° W 17:57:17 47° NNW 18:00:15 17° NE
ASTEX 1 3.5 17:53:40 10° N 17:58:38 82° W 18:03:36 10° S
FALCON 9 DEB 4.2 17:55:27 10° NW 17:58:38 33° NNE 18:00:09 23° ENE
Lacrosse 5 rocket 3.0 17:55:19 10° WNW 17:58:39 30° SW 18:02:06 10° SSE
Cosmos 1356 3.3 17:55:56 10° S 17:59:22 80° E 18:02:49 10° NNE
Cosmos 2278 Rocket 2.5 17:54:54 10° S 18:00:12 43° ESE 18:05:33 10° NE
Cosmos 1939 Rocket 3.1 17:56:36 10° SE 18:00:24 47° ENE 18:04:18 10° N
Unknown 4.4 17:56:38 10° W 18:00:38 45° NNW 18:03:27 18° NE
Unknown 4.4 17:58:21 10° W 18:02:21 45° NNW 18:05:06 18° NE
Cosmos 1812 Rocket 4.3 17:59:14 10° SSE 18:03:04 30° E 18:06:57 10° NNE
Unknown 4.1 18:00:42 10° NW 18:03:54 35° NNE 18:05:05 26° ENE
Unknown 4.4 18:00:00 10° W 18:03:59 44° NNW 18:06:39 19° NE
Cosmos 1844 4.2 17:59:17 10° SW 18:04:56 63° WNW 18:10:42 10° NNE
Unknown 4.3 18:02:15 10° NW 18:05:29 33° N 18:06:45 25° NE
Unknown 4.5 18:01:37 10° W 18:05:36 44° NNW 18:08:12 19° NE
ATLAS 5 CENTAUR R/B 3.2 18:01:56 10° WSW 18:05:56 33° NW 18:10:25 10° NNE
Unknown 4.5 18:02:03 10° W 18:06:02 43° NNW 18:08:37 19° NE
SKYMED 2 4.1 18:04:01 10° N 18:08:19 62° WNW 18:12:35 10° SSW
Unknown 4.5 18:04:47 10° W 18:08:46 44° NNW 18:11:14 20° NE
Cosmos 489 Rocket 4.4 18:03:07 10° SSW 18:09:19 78° ESE 18:15:32 10° NNE
Cosmos 1328 4.1 18:05:39 10° NNW 18:09:38 69° W 18:13:33 10° S
Unknown 4.5 18:08:11 10° W 18:12:09 43° NNW 18:14:29 22° NE
YAOGAN 1 2.9 18:08:18 10° S 18:12:36 67° W 18:16:56 10° NNW
Cosmos 1076 Rocket 4.1 18:09:36 10° N 18:13:38 35° ENE 18:14:33 31° E
Falcon 9 debris 3.9 18:15:06 10° NW 18:18:22 39° NNE 18:18:58 35° NE
Cosmos 292 Rocket 3.8 18:15:13 10° SSW 18:19:57 78° WNW 18:24:45 10° NNE
CSL-04 Rocket 4.3 18:17:23 10° S 18:22:51 60° WSW 18:28:18 10° NNW
CZ-4 R/B 3.0 18:19:33 10° SSW 18:23:26 38° W 18:27:24 10° NNW
USA 238 DEB 3.9 18:18:38 10° S 18:24:53 44° ESE 18:28:53 22° ENE
USA 238 3.9 18:18:46 10° S 18:25:00 43° ESE 18:28:56 22° ENE
Unknown 3.9 18:25:13 10° NW 18:28:34 40° NNE 18:28:48 39° NNE
Shenzhou-11 Module 3.1 18:27:39 10° WSW 18:29:46 31° SSW 18:29:46 31° SSW
Ariane Rocket 2.9 18:25:24 10° SSE 18:30:30 85° ENE 18:35:39 10° NNW
NOAA 11 4.2 18:25:13 10° SSE 18:30:40 84° WSW 18:36:09 10° NNW
Cosmos 1726 3.6 18:27:26 10° SSW 18:30:53 38° WNW 18:34:20 10° N
Lacrosse 5 2.1 18:26:24 10° NW 18:31:22 54° NNE 18:32:48 40° E
ARGOS 3.8 18:38:25 35° ENE 18:38:25 35° ENE 18:43:16 10° N
CZ-2D R/B 3.9 18:34:38 10° S 18:38:25 56° W 18:42:14 10° NNW
Cosmos 1833 Rocket 2.6 18:35:20 10° NNW 18:40:59 90° WSW 18:44:18 26° SSE
SPOT 3 Rocket 3.7 18:48:34 50° ENE 18:48:47 51° ENE 18:53:49 10° N
NOSS 3-2 (A) 3.5 18:45:04 10° SSW 18:50:35 50° ESE 18:51:20 48° E
HJ-1C 3.9 18:51:33 60° W 18:51:33 60° W 18:54:50 10° NNW
NOSS 3-3 (A) 4.4 18:49:04 10° NW 18:56:30 75° NE 18:59:43 41° SE
Cosmos 1459 Rocket 3.9 18:50:21 10° N 18:56:33 68° E 18:58:58 39° SSE
NOSS 3-3 (C) 4.4 18:49:09 10° NW 18:56:36 75° NE 18:59:47 41° SE
Cosmos 2058 3.5 18:55:03 10° N 18:58:10 47° N 18:58:10 47° N
Gbstr 26 Del rocket 4.1 18:55:31 10° WNW 19:01:52 84° SSW 19:04:05 49° SE
Cosmos 2082 Rocket 2.1 18:57:21 10° NNW 19:03:07 87° WSW 19:04:38 51° SSE
SJ 16-02 3.2 19:00:49 10° N 19:02:24 19° NNE 19:02:24 19° NNE
Resurs 01 Rocket 3.8 19:09:04 15° NNE 19:09:04 15° NNE 19:10:00 10° N
H-2A R/B 2.2 19:06:53 59° NE 19:06:53 59° NE 19:11:47 10° N
Cosmos 1727 Rocket 4.3 19:02:04 10° SSW 19:08:13 66° WNW 19:14:22 10° N
Cosmos 1802 Rocket 3.9 19:10:05 10° N 19:16:35 80° E 19:17:48 60° SSE
Cosmos 2173 Rocket 3.9 19:13:33 10° N 19:19:51 82° W 19:22:02 43° S
In-Cosmos 22 Rocket 4.2 19:25:09 10° NNW 19:30:27 73° W 19:30:27 73° W
Cosmos 1898 Rocket 4.1 19:28:38 10° NNW 19:32:33 51° NNW 19:32:33 51° NNW
CZ-2C R/B 3.9 19:37:01 49° N 19:37:01 49° N 19:41:16 10° N
ADEOS Rocket 3.4 19:28:07 10° NNE 19:35:56 85° ESE 19:43:12 10° SSW
Cosmos 1725 Rocket 4.2 19:32:04 10° N 19:37:15 61° NNE 19:37:15 61° NNE
Cosmos 2278 Rocket 3.6 19:39:11 10° WSW 19:44:23 36° NW 19:49:37 10° NNE
ATLAS 5 CENTAUR R/B 4.4 19:49:39 10° NW 19:52:13 14° N 19:53:18 13° N
ATLAS CENTAUR R/B 4.4 19:54:33 10° NNW 19:55:01 12° N 19:55:01 12° N
Cosmos 2016 Rocket 4.5 19:57:23 10° NNW 20:03:18 57° W 20:03:18 57° W
Lacrosse 5 3.9 20:09:35 10° WNW 20:12:01 25° W 20:12:01 25° W
USA 238 DEB 4.3 20:09:13 10° WSW 20:15:46 51° NW 20:16:23 49° NNW
USA 238 4.3 20:09:19 10° WSW 20:15:52 51° NW 20:16:26 50° NNW
H-2A R/B 4.4 20:47:31 19° WNW 20:47:31 19° WNW 20:50:16 10° NW
